Weather History for KMFV - August, 2013

Change the Weather History Date:

Tuesday, August 20, 2013

  Actual Average (KWAL) Record (KWAL)
Temperature  
Mean Temperature 76 °F 75 °F  
Max Temperature 82 °F 83 °F 97 °F (1983)
Min Temperature 69 °F 68 °F 57 °F (2000)
Degree Days  
Heating Degree Days 0    
Month to date heating degree days  
Since 1 June heating degree days  
Since 1 July heating degree days  
Cooling Degree Days 10    
Month to date cooling degree days  
Year to date cooling degree days  
Since 1 June cooling degree days  
Growing Degree Days 26 (Base 50)    
Moisture  
Dew Point 70 °F    
Average Humidity 83    
Maximum Humidity 94    
Minimum Humidity 66    
Precipitation  
Precipitation 0.00 in 0.13 in 0.97 in (2007)
Month to date precipitation 2.86  
Year to date precipitation 26.06  
Sea Level Pressure  
Sea Level Pressure 30.15 in    
Wind  
Wind Speed 1 mph (West)    
Max Wind Speed 8 mph    
Max Gust Speed -    
Visibility 8 miles    
Events Fog    
T = Trace of Precipitation, MM = Missing Value Source: NWS Daily Summary

Daily Weather History Graph

Daily Weather History Graph

Search for Another Location

Airport or City:

Trip Planner

Search our weather history database for the weather conditions in past years. The results will help you decide how hot, cold, wet, or windy it might be!

Date:

Astronomy

Aug. 20, 2013 Rise Set
Actual Time 6:23 AM EDT 7:48 PM EDT
Civil Twilight 5:55 AM EDT 8:16 PM EDT
Nautical Twilight 5:22 AM EDT 8:49 PM EDT
Astronomical Twilight 4:47 AM EDT 9:23 PM EDT
Moon 7:20 PM EDT (8/20) 5:49 AM EDT (8/20)
Length of Visible Light 14h 20m
Length of Day
13h 25m
Full, 100% of the Moon is Illuminated
Aug 20
Full
Aug 20
Full
Aug 28
Last Quarter
Sep 5
New
Sep 12
First Quarter

Hourly Weather History & Observations

Time (EDT) Temp. Heat Index Dew Point Humidity Pressure Visibility Wind Dir Wind Speed Gust Speed Precip Events Conditions
12:16 AM 71.6 °F - 69.8 °F 94% 30.12 in 2.5 mi Calm Calm - N/A   Scattered Clouds
12:36 AM 71.6 °F - 69.8 °F 94% 30.12 in 0.2 mi Calm Calm - N/A Fog Fog
12:55 AM 71.6 °F - 69.8 °F 94% 30.13 in 0.2 mi Calm Calm - N/A Fog Fog
1:15 AM 69.8 °F - 68.0 °F 94% 30.12 in 3.0 mi Calm Calm - N/A   Scattered Clouds
1:36 AM 69.8 °F - 68.0 °F 94% 30.12 in 4.0 mi Calm Calm - N/A   Mostly Cloudy
1:56 AM 71.6 °F - 69.8 °F 94% 30.12 in 4.0 mi Calm Calm - N/A   Overcast
2:15 AM 71.6 °F - 69.8 °F 94% 30.12 in 4.0 mi Calm Calm - N/A   Overcast
2:36 AM 71.6 °F - 69.8 °F 94% 30.11 in 4.0 mi Calm Calm - N/A   Overcast
2:55 AM 71.6 °F - 69.8 °F 94% 30.11 in 5.0 mi Calm Calm - N/A   Overcast
3:15 AM 71.6 °F - 69.8 °F 94% 30.11 in 5.0 mi Calm Calm - N/A   Overcast
3:35 AM 71.6 °F - 69.8 °F 94% 30.11 in 4.0 mi Calm Calm - N/A   Overcast
3:55 AM 71.6 °F - 69.8 °F 94% 30.11 in 4.0 mi Calm Calm - N/A   Overcast
4:16 AM 71.6 °F - 69.8 °F 94% 30.11 in 5.0 mi SW 4.6 mph - N/A   Overcast
4:35 AM 71.6 °F - 69.8 °F 94% 30.10 in 5.0 mi Calm Calm - N/A   Overcast
4:55 AM 71.6 °F - 69.8 °F 94% 30.11 in 4.0 mi Calm Calm - N/A   Overcast
5:16 AM 71.6 °F - 69.8 °F 94% 30.11 in 4.0 mi Calm Calm - N/A   Overcast
5:38 AM 71.6 °F - 69.8 °F 94% 30.12 in 4.0 mi Calm Calm - N/A   Overcast
5:55 AM 71.6 °F - 69.8 °F 94% 30.12 in 7.0 mi WNW 3.5 mph - N/A   Overcast
6:15 AM 73.4 °F - 71.6 °F 94% 30.12 in 10.0 mi Calm Calm - N/A   Overcast
6:37 AM 73.4 °F - 71.6 °F 94% 30.13 in 10.0 mi Calm Calm - N/A   Overcast
6:55 AM 73.4 °F - 69.8 °F 88% 30.14 in 10.0 mi Calm Calm - N/A   Overcast
7:15 AM 73.4 °F - 71.6 °F 94% 30.15 in 10.0 mi Calm Calm - N/A   Overcast
7:35 AM 73.4 °F - 71.6 °F 94% 30.15 in 10.0 mi Calm Calm - N/A   Overcast
7:57 AM 73.4 °F - 71.6 °F 94% 30.16 in 10.0 mi Calm Calm - N/A   Overcast
8:15 AM 73.4 °F - 69.8 °F 88% 30.16 in 10.0 mi Calm Calm - N/A   Overcast
8:36 AM 75.2 °F - 69.8 °F 83% 30.17 in 10.0 mi Calm Calm - N/A   Overcast
8:55 AM 75.2 °F - 69.8 °F 83% 30.17 in 10.0 mi Calm Calm - N/A   Overcast
9:15 AM 75.2 °F - 69.8 °F 83% 30.17 in 10.0 mi Calm Calm - N/A   Overcast
9:35 AM 77.0 °F - 69.8 °F 78% 30.18 in 10.0 mi Calm Calm - N/A   Overcast
9:55 AM 77.0 °F - 69.8 °F 78% 30.18 in 10.0 mi Calm Calm - N/A   Overcast
10:15 AM 78.8 °F - 69.8 °F 74% 30.18 in 10.0 mi NNW 3.5 mph - N/A   Overcast
10:35 AM 78.8 °F - 69.8 °F 74% 30.19 in 10.0 mi Calm Calm - N/A   Overcast
10:55 AM 78.8 °F - 69.8 °F 74% 30.19 in 10.0 mi NW 3.5 mph - N/A   Mostly Cloudy
11:15 AM 78.8 °F - 69.8 °F 74% 30.19 in 10.0 mi Calm Calm - N/A   Mostly Cloudy
11:35 AM 80.6 °F 83.9 °F 69.8 °F 70% 30.19 in 10.0 mi WNW 5.8 mph - N/A   Mostly Cloudy
11:55 AM 80.6 °F 83.9 °F 69.8 °F 70% 30.19 in 10.0 mi WNW 3.5 mph - N/A   Mostly Cloudy
12:15 PM 82.4 °F 86.3 °F 69.8 °F 66% 30.19 in 10.0 mi NW 3.5 mph - N/A   Scattered Clouds
12:35 PM 82.4 °F 86.3 °F 69.8 °F 66% 30.18 in 10.0 mi Calm Calm - N/A   Clear
12:55 PM 82.4 °F 86.3 °F 69.8 °F 66% 30.19 in 10.0 mi NW 4.6 mph - N/A   Scattered Clouds
1:15 PM 82.4 °F 86.3 °F 69.8 °F 66% 30.19 in 10.0 mi Calm Calm - N/A   Scattered Clouds
1:35 PM 82.4 °F 86.3 °F 69.8 °F 66% 30.18 in 10.0 mi Calm Calm - N/A   Clear
1:56 PM 82.4 °F 86.3 °F 69.8 °F 66% 30.18 in 10.0 mi Calm Calm - N/A   Scattered Clouds
2:15 PM 82.4 °F 87.2 °F 71.6 °F 70% 30.17 in 10.0 mi West 5.8 mph - N/A   Scattered Clouds
2:35 PM 82.4 °F 87.2 °F 71.6 °F 70% 30.17 in 10.0 mi West 6.9 mph - N/A   Clear
2:57 PM 82.4 °F 87.2 °F 71.6 °F 70% 30.16 in 10.0 mi WNW 8.1 mph - N/A   Clear
3:15 PM 82.4 °F 87.2 °F 71.6 °F 70% 30.16 in 10.0 mi WNW 8.1 mph - N/A   Clear
3:35 PM 82.4 °F 87.2 °F 71.6 °F 70% 30.16 in 10.0 mi WNW 6.9 mph - N/A   Clear
3:55 PM 82.4 °F 87.2 °F 71.6 °F 70% 30.16 in 10.0 mi West 4.6 mph - N/A   Clear
4:16 PM 82.4 °F 86.3 °F 69.8 °F 66% 30.15 in 10.0 mi West 5.8 mph - N/A   Clear
4:35 PM 82.4 °F 86.3 °F 69.8 °F 66% 30.15 in 10.0 mi West 3.5 mph - N/A   Clear
4:55 PM 82.4 °F 86.3 °F 69.8 °F 66% 30.15 in 10.0 mi West 6.9 mph - N/A   Clear
5:15 PM 82.4 °F 86.3 °F 69.8 °F 66% 30.14 in 10.0 mi West 3.5 mph - N/A   Clear
5:35 PM 82.4 °F 86.3 °F 69.8 °F 66% 30.14 in 10.0 mi WSW 4.6 mph - N/A   Clear
5:57 PM 82.4 °F 86.3 °F 69.8 °F 66% 30.14 in 10.0 mi WSW 4.6 mph - N/A   Clear
6:15 PM 82.4 °F 86.3 °F 69.8 °F 66% 30.14 in 10.0 mi WSW 3.5 mph - N/A   Clear
6:36 PM 80.6 °F 83.9 °F 69.8 °F 70% 30.14 in 10.0 mi WSW 3.5 mph - N/A   Clear
6:55 PM 78.8 °F - 71.6 °F 78% 30.14 in 10.0 mi Calm Calm - N/A   Clear
7:16 PM 78.8 °F - 69.8 °F 74% 30.15 in 10.0 mi SSW 3.5 mph - N/A   Clear
7:35 PM 77.0 °F - 71.6 °F 83% 30.15 in 10.0 mi Calm Calm - N/A   Clear
7:56 PM 75.2 °F - 71.6 °F 89% 30.15 in 10.0 mi Calm Calm - N/A   Clear
8:15 PM 75.2 °F - 71.6 °F 89% 30.15 in 10.0 mi South 3.5 mph - N/A   Clear
8:35 PM 73.4 °F - 69.8 °F 88% 30.16 in 10.0 mi Calm Calm - N/A   Clear
8:56 PM 73.4 °F - 69.8 °F 88% 30.17 in 7.0 mi Calm Calm - N/A   Clear
9:15 PM 71.6 °F - 69.8 °F 94% 30.17 in 2.0 mi Calm Calm - N/A   Clear
9:35 PM 71.6 °F - 69.8 °F 94% 30.18 in 4.0 mi Calm Calm - N/A   Clear
9:55 PM 71.6 °F - 69.8 °F 94% 30.18 in 2.5 mi South 4.6 mph - N/A   Clear
10:15 PM 71.6 °F - 69.8 °F 94% 30.18 in 5.0 mi Calm Calm - N/A   Clear
10:35 PM 71.6 °F - 69.8 °F 94% 30.18 in 2.5 mi Calm Calm - N/A   Clear
10:55 PM 71.6 °F - 69.8 °F 94% 30.18 in 4.0 mi Calm Calm - N/A   Clear
11:15 PM 71.6 °F - 69.8 °F 94% 30.18 in 4.0 mi Calm Calm - N/A   Clear
11:36 PM 71.6 °F - 69.8 °F 94% 30.18 in 2.5 mi SSW 3.5 mph - N/A   Clear
11:57 PM 71.6 °F - 69.8 °F 94% 30.19 in 1.2 mi SSW 3.5 mph - N/A   Mist